Regional Weather Roundup
Issued by NWS

Home | Current Version | Previous Version | Graphics & Text | Print | Product List | Glossary On
Versions: 1 2 3 4 5 6 7 8 9 10 11 12 13 14 15 16 17 18 19 20 21 22 23 24 25 26 27 28 29 30 31 32 33 34 35 36 37 38 39 40 41 42 43 44 45 46 47 48 49 50
000
ASUS43 KBIS 260501
RWRND

NORTH DAKOTA REGIONAL WEATHER ROUNDUP
NATIONAL WEATHER SERVICE BISMARCK ND
1200 AM CDT TUE MAY 26 2015

NOTE: "FAIR" INDICATES FEW OR NO CLOUDS BELOW 12,000 FEET WITH NO
SIGNIFICANT WEATHER AND/OR OBSTRUCTIONS TO VISIBILITY.


NDZ001>003-009>011-017-260600-
NORTHWEST NORTH DAKOTA

CITY           SKY/WX    TMP DP  RH WIND       PRES   REMARKS
WILLISTON      CLEAR     55  48  77 SW6       29.89R
MINOT          CLEAR     64  45  49 W17       29.83R
MINOT AFB      CLEAR     60  48  64 W14       29.82R
$$

NDZ018>021-031>035-040>046-260600-
SOUTHWEST NORTH DAKOTA

CITY           SKY/WX    TMP DP  RH WIND       PRES   REMARKS
BISMARCK       CLEAR     58  53  84 W8        29.88R
DICKINSON      CLEAR     49  46  90 W7        29.91R
GARRISON         N/A     58  50  75 W12       29.85S
HETTINGER ARPT CLEAR     47  45  93 NW3       29.94S
$$

NDZ004>008-012>016-024-026-027-054-260600-
NORTHEAST NORTH DAKOTA

CITY           SKY/WX    TMP DP  RH WIND       PRES   REMARKS
GRAND FORKS    CLEAR     57  50  77 S12       29.82R
GRND FRKS AFB  CLEAR     56  47  74 S10       29.81R
DEVILS LAKE    PTCLDY    59  52  77 CALM      29.80R
$$

NDZ022-023-025-028>030-036>039-047>053-260600-
SOUTHEAST NORTH DAKOTA

CITY           SKY/WX    TMP DP  RH WIND       PRES   REMARKS
FARGO          CLEAR     52  50  93 SW3       29.86R
JAMESTOWN      CLEAR     59  52  77 S13       29.84R
$$



USA.gov is the U.S. government's official web portal to all federal, state and local government web resources and services.